User: anonymous   Login
Location: eljas
(40.1958°N, 6.8661°W)
Time: 20:00:39
(UTC+01:00)
Language:

Okean O Rocket - Orbit

View from above orbital plane
View from above orbital plane
View from above satellite
View from above satellite

Ground track
Ground track

The orbit data is extracted from the following two-line orbital elements,

1 25861U 99039B   15059.52089331  .00000548  00000-0  83109-4 0  9995
2 25861 097.9873 020.5634 0014309 268.5857 207.5184 14.78026925841728
Epoch (UTC): 28 February 2015 12:30:05
Eccentricity: 0.0014309
inclination: 97.9873°
perigee height: 625 km
apogee height: 645 km
right ascension of ascending node: 20.5634°
argument of perigee: 268.5857°
revolutions per day: 14.78026925
mean anomaly at epoch: 207.5184°
orbit number at epoch: 84172

The dashed part of the orbit path shows where the satellite is in the earth's shadow,  

DLR